Location: Bretagne
(43.8474°N, 0.4650°W)
Time: 15:44:03
(UTC+00:00)

Okean 2 - Pass Details

Date: 15 January 2026
Orbit: 515 x 524 km, 82.5° (Epoch: 18 February)

Event Time Altitude Azimuth Distance (km) Brightness Sun altitude
Rises 18:16:26 0° 185° (S) 2,640 7.1 -15.3°
Reaches altitude 10° 18:18:33 10° 184° (S) 1,754 6.1 -15.6°
Maximum altitude 18:22:24 81° 97° (E) 533 3.1 -16.3°
Drops below altitude 10° 18:26:16 10° 10° (N) 1,763 5.7 -17.0°
Enters shadow 18:26:19 10° 10° (N) 1,781 5.7 -17.0°
